Stations météo

réclame
Mon MeteoGroup
La Coruna, Espagne (8001): Température de l'air & dewpoint: 22.05.2018 11:00:00 - 28.05.2018 11:00:00 (CEST)La Coruna, Espagne (8001): Vitesse du vent: 22.05.2018 11:00:00 - 28.05.2018 11:00:00 (CEST)La Coruna, Espagne (8001): Direction du vent: 22.05.2018 11:00:00 - 28.05.2018 11:00:00 (CEST)La Coruna, Espagne (8001): reduced air pressure: 22.05.2018 11:00:00 - 28.05.2018 11:00:00 (CEST)La Coruna, Espagne (8001): visibility: 22.05.2018 11:00:00 - 28.05.2018 11:00:00 (CEST)La Coruna, Espagne (8001): Quantités de précipitations: 22.05.2018 11:00:00 - 28.05.2018 11:00:00 (CEST)
Date & Time tt [°C] td [°C] ff [km/h] ff [knt] dd ppp [hPa] vv [km] rr [mm]
28.05.2018 11:00:00 15,7 13,4 8 4 N 1018,0 18 -
28.05.2018 10:00:00 15,2 13,0 4 2 NW 1018,0 16 0,0
28.05.2018 09:00:00 15,2 12,9 4 2 W 1018,0 17 0,0
28.05.2018 08:00:00 13,8 12,7 4 2 E 1017,9 12 -
28.05.2018 07:00:00 13,6 12,7 2 1 N 1017,6 14 0,0
28.05.2018 06:00:00 13,6 12,5 2 1 WNW 1017,4 7 0,2
28.05.2018 05:00:00 13,7 12,4 4 2 WSW 1017,4 15 -
28.05.2018 04:00:00 13,6 12,5 5 3 WSW 1017,8 15 0,0
28.05.2018 03:00:00 13,6 12,5 4 2 WSW 1018,2 16 0,0
28.05.2018 02:00:00 13,6 12,2 4 2 W 1018,3 15 -
28.05.2018 01:00:00 14,0 12,7 5 3 W 1018,8 15 0,0
28.05.2018 00:00:00 13,7 12,4 4 2 W 1018,5 19 0,0
27.05.2018 23:00:00 13,9 12,6 2 1 W 1018,2 18 -
27.05.2018 22:00:00 14,2 12,8 9 5 W 1017,9 17 0,0
27.05.2018 21:00:00 14,8 12,3 8 4 W 1017,6 20 0,0
27.05.2018 20:00:00 15,4 12,3 11 6 WNW 1017,6 20 -
27.05.2018 19:00:00 16,1 12,8 16 9 W 1017,3 19 0,0
27.05.2018 18:00:00 16,8 13,1 16 9 WNW 1017,3 19 0,0
27.05.2018 17:00:00 17,1 13,2 16 9 W 1017,3 20 -
27.05.2018 16:00:00 16,6 13,1 18 10 W 1017,6 19 0,0
27.05.2018 15:00:00 16,4 12,7 13 7 W 1017,7 18 0,0
27.05.2018 14:00:00 15,6 12,9 15 8 W 1017,8 18 -
27.05.2018 13:00:00 15,5 13,2 15 8 W 1017,8 13 0,0
27.05.2018 12:00:00 16,3 13,0 16 9 W 1017,8 15 0,0
27.05.2018 11:00:00 16,3 13,6 13 7 W 1017,2 18 -
27.05.2018 10:00:00 14,8 12,5 11 6 WSW 1016,8 15 0,0
27.05.2018 09:00:00 14,3 12,5 11 6 WSW 1016,4 12 0,0
27.05.2018 08:00:00 13,8 12,2 13 7 WSW 1016,0 15 -
27.05.2018 07:00:00 13,7 12,1 9 5 W 1015,5 12 0,0
27.05.2018 06:00:00 13,7 12,4 9 5 WSW 1015,2 12 0,0
27.05.2018 05:00:00 13,9 13,1 8 4 W 1015,5 10 -
27.05.2018 04:00:00 13,9 13,1 9 5 W 1015,6 9 0,0
27.05.2018 03:00:00 14,0 13,4 8 4 WNW 1016,0 7 0,0
27.05.2018 02:00:00 14,2 13,4 8 4 WNW 1016,2 5 -
27.05.2018 01:00:00 14,3 13,5 8 4 WNW 1016,3 6 0,0
27.05.2018 00:00:00 14,4 13,6 8 4 WNW 1016,4 6 0,0
26.05.2018 23:00:00 14,2 13,2 5 3 WNW 1016,3 2,5 -
26.05.2018 22:00:00 14,2 13,2 4 2 N 1015,7 4,6 0,0
26.05.2018 21:00:00 14,6 13,5 8 4 NW 1015,5 7 0,0
26.05.2018 20:00:00 14,8 13,5 9 5 WNW 1015,1 - -
26.05.2018 19:00:00 14,9 13,3 5 3 NNW 1015,0 7 0,0
26.05.2018 18:00:00 15,0 13,9 8 4 NNW 1015,0 6 0,0
26.05.2018 17:00:00 14,5 13,9 9 5 NNW 1015,2 - -
26.05.2018 16:00:00 14,2 13,9 9 5 N 1015,5 2,8 0,0
26.05.2018 15:00:00 14,0 13,7 11 6 NNW 1015,5 2,8 0,0
26.05.2018 14:00:00 13,8 13,5 11 6 N 1015,5 2,5 -
26.05.2018 13:00:00 13,5 13,2 13 7 N 1015,3 4,6 0,0
26.05.2018 12:00:00 13,4 13,2 15 8 N 1015,3 4,5 0,0
26.05.2018 11:00:00 13,3 13,1 18 10 N 1015,3 2,0 -
26.05.2018 10:00:00 13,6 13,4 13 7 N 1015,1 0,7 0,2
26.05.2018 09:00:00 13,5 13,3 11 6 N 1014,9 1,8 0,6
26.05.2018 08:00:00 13,5 13,3 11 6 N 1014,8 3,0 -
26.05.2018 07:00:00 13,4 13,2 16 9 N 1014,5 1,3 0,2
26.05.2018 06:00:00 13,4 13,1 11 6 N 1014,5 3,0 0,4
26.05.2018 05:00:00 13,5 12,9 15 8 N 1014,8 10 -
26.05.2018 04:00:00 13,6 12,7 11 6 NNE 1015,0 6 0,0
26.05.2018 03:00:00 13,6 12,7 13 7 N 1015,3 - 0,4
26.05.2018 02:00:00 13,9 12,5 13 7 NNE 1015,9 10 -
26.05.2018 01:00:00 13,9 12,6 15 8 NNE 1016,2 7 0,0
26.05.2018 00:00:00 14,2 12,6 15 8 NNE 1016,4 8 0,0
25.05.2018 23:00:00 14,1 12,3 21 11 NE 1016,4 15 -
25.05.2018 22:00:00 14,1 13,0 15 8 NNE 1015,8 6 0,0
25.05.2018 21:00:00 14,2 13,1 16 9 N 1015,6 6 0,0
25.05.2018 20:00:00 14,2 13,1 13 7 NNE 1015,3 4,6 -
25.05.2018 19:00:00 14,3 12,8 13 7 N 1015,4 6 0,0
25.05.2018 18:00:00 14,3 12,8 15 8 N 1015,5 7 0,0
25.05.2018 17:00:00 14,5 13,0 13 7 NNE 1015,7 6 -
25.05.2018 16:00:00 14,6 13,1 13 7 NNE 1015,7 - 0,0
25.05.2018 15:00:00 14,5 12,9 11 6 NE 1016,0 7 0,2
25.05.2018 14:00:00 14,1 12,8 11 6 NNE 1016,2 5 -
25.05.2018 13:00:00 14,4 12,8 13 7 NE 1016,5 4,5 0,2
25.05.2018 12:00:00 14,6 12,5 15 8 NNE 1016,3 7 0,0
25.05.2018 11:00:00 14,2 12,2 16 9 N 1016,0 10 -
25.05.2018 10:00:00 14,1 12,5 21 11 NNE 1016,2 6 0,0
25.05.2018 09:00:00 14,2 12,9 18 10 N 1015,6 4,9 0,0
25.05.2018 08:00:00 14,4 13,3 16 9 NNE 1015,2 5 -
25.05.2018 07:00:00 14,5 13,4 22 12 N 1014,9 4,7 0,0
25.05.2018 06:00:00 14,7 13,6 24 13 N 1014,3 - 0,0
25.05.2018 05:00:00 14,6 13,6 16 9 NNE 1014,6 5 -
25.05.2018 04:00:00 14,8 13,5 13 7 N 1015,1 - 0,0
25.05.2018 03:00:00 14,9 13,6 11 6 NNE 1015,9 6 0,0
25.05.2018 02:00:00 14,9 13,8 18 10 NE 1015,9 15 -
25.05.2018 01:00:00 15,0 13,5 15 8 NNE 1015,7 6 0,0
25.05.2018 00:00:00 15,2 13,2 13 7 NNE 1015,8 8 0,0
24.05.2018 23:00:00 15,8 13,1 15 8 NNE 1015,4 20 -
24.05.2018 22:00:00 18,0 13,5 11 6 NE 1014,9 17 0,0
24.05.2018 21:00:00 18,1 14,0 8 4 N 1014,8 16 0,0
24.05.2018 20:00:00 17,6 13,5 8 4 WNW 1015,2 16 -
24.05.2018 19:00:00 16,3 13,6 11 6 N 1014,5 10 0,0
24.05.2018 18:00:00 16,8 13,9 21 11 N 1014,1 11 0,0
24.05.2018 17:00:00 17,5 14,2 28 15 N 1013,8 13 -
24.05.2018 16:00:00 17,8 13,9 22 12 N 1014,1 14 0,0
24.05.2018 15:00:00 18,9 14,2 9 5 NW 1014,4 15 0,0
24.05.2018 14:00:00 20,3 14,2 15 8 N 1014,5 18 -
24.05.2018 13:00:00 21,5 15,6 9 5 N 1015,3 17 0,0
24.05.2018 12:00:00 19,9 14,7 5 3 NNW 1014,9 17 0,0
24.05.2018 11:00:00 19,2 14,0 5 3 N 1015,1 15 -
24.05.2018 10:00:00 18,3 14,4 5 3 NE 1015,4 13 0,0
24.05.2018 09:00:00 16,2 14,2 5 3 ENE 1015,5 8 0,0
24.05.2018 08:00:00 15,1 13,8 4 2 E 1015,5 10 -
24.05.2018 07:00:00 14,5 13,4 2 1 SSW 1015,2 6 0,0
24.05.2018 06:00:00 14,6 13,3 4 2 N 1015,2 - 0,0
24.05.2018 05:00:00 15,2 13,4 4 2 N 1015,5 12 -
24.05.2018 04:00:00 15,7 13,5 4 2 ESE 1015,7 9 0,0
24.05.2018 03:00:00 16,0 13,3 4 2 E 1015,9 11 0,0
24.05.2018 02:00:00 16,7 13,0 2 1 NNE 1016,1 15 -
24.05.2018 01:00:00 16,3 13,0 5 3 W 1016,3 13 0,0
24.05.2018 00:00:00 16,9 13,8 8 4 W 1016,4 11 0,0
23.05.2018 23:00:00 18,1 14,2 2 1 WNW 1015,9 15 -
23.05.2018 22:00:00 19,0 14,3 2 1 N 1015,4 14 0,0
23.05.2018 21:00:00 19,6 14,4 5 3 W 1015,3 15 0,0
23.05.2018 20:00:00 20,0 14,6 8 4 W 1015,0 17 -
23.05.2018 19:00:00 20,3 14,0 8 4 W 1014,6 18 0,0
23.05.2018 18:00:00 21,2 14,4 11 6 W 1014,8 18 0,0
23.05.2018 17:00:00 19,8 13,7 9 5 N 1015,0 18 -
23.05.2018 16:00:00 20,3 13,7 8 4 NNW 1015,0 18 0,0
23.05.2018 15:00:00 19,1 13,9 15 8 N 1015,5 15 0,0
23.05.2018 14:00:00 20,7 13,9 11 6 N 1015,7 20 -
23.05.2018 13:00:00 21,7 12,8 5 3 ENE 1016,0 19 0,0
23.05.2018 12:00:00 19,9 12,4 4 2 NNE 1016,5 16 0,0
23.05.2018 11:00:00 18,6 11,4 8 4 NE 1016,4 18 -
23.05.2018 10:00:00 17,1 11,6 5 3 ENE 1016,4 15 0,0
23.05.2018 09:00:00 15,0 11,2 4 2 ESE 1016,4 14 0,0
23.05.2018 08:00:00 13,7 10,7 5 3 ENE 1016,1 18 -
23.05.2018 07:00:00 13,1 9,5 4 2 E 1015,7 14 0,0
23.05.2018 06:00:00 13,7 9,3 4 2 E 1015,7 17 0,0
23.05.2018 05:00:00 13,8 9,4 4 2 NE 1015,8 15 -
23.05.2018 04:00:00 14,3 9,3 4 2 E 1016,0 19 0,0
23.05.2018 03:00:00 14,8 9,2 5 3 E 1016,5 20 0,0
23.05.2018 02:00:00 15,4 9,1 4 2 E 1016,9 18 -
23.05.2018 01:00:00 16,0 9,4 9 5 ENE 1016,7 18 0,0
23.05.2018 00:00:00 16,4 10,3 9 5 NE 1016,6 19 0,0
22.05.2018 23:00:00 16,7 11,2 4 2 NE 1015,9 18 -
22.05.2018 22:00:00 17,0 11,9 5 3 NW 1015,2 14 0,0
22.05.2018 21:00:00 17,1 12,4 5 3 WNW 1014,6 13 0,0
22.05.2018 20:00:00 17,6 13,1 9 5 NW 1014,5 14 -
22.05.2018 19:00:00 17,6 12,9 8 4 WNW 1014,4 14 0,0
22.05.2018 18:00:00 17,5 13,8 9 5 NNW 1014,2 13 0,0
22.05.2018 17:00:00 18,1 13,6 11 6 NW 1014,4 16 -
22.05.2018 16:00:00 18,5 13,6 11 6 NNW 1014,8 17 0,0
22.05.2018 15:00:00 18,8 13,2 9 5 NNW 1015,0 19 0,0
22.05.2018 14:00:00 18,5 13,1 13 7 WNW 1015,2 18 -
22.05.2018 13:00:00 18,0 12,9 9 5 N 1015,5 14 0,0
22.05.2018 12:00:00 16,9 12,2 5 3 NNE 1015,7 13 0,0
22.05.2018 11:00:00 15,8 12,2 8 4 N 1015,8 10 -

tt = Température de l'air
td = dewpoint
ff = Vitesse du vent
dd = Direction du vent
ppp = reduced air pressure
vv = visibility
rr = Quantités de précipitations

stations d'obs. à proximité